| time (UTC) | temp F | wind direction | speed MPH | gust MPH | rain 1hr in | rain 24hr in | rain mn in | humidity % | barometer mb |
| 20260506073518 | 53 | 0 | 2.0 | 5.0 | 0.00 | 0.00 | 0.00 | 87 | 1015.3 |
| 20260506072518 | 54 | 23 | 1.0 | 2.0 | 0.00 | 0.00 | 0.00 | 87 | 1015.2 |
| 20260506071518 | 54 | 23 | 1.0 | 3.0 | 0.00 | 0.00 | 0.00 | 86 | 1015.1 |
| 20260506070518 | 54 | 23 | 2.0 | 3.0 | 0.00 | 0.00 | 0.00 | 86 | 1015.1 |
| 20260506061541 | 55 | 90 | 2.0 | 4.0 | 0.00 | 0.00 | 0.00 | 84 | 1014.7 |
| 20260506060539 | 55 | 45 | 4.0 | 6.0 | 0.00 | 0.00 | 0.00 | 84 | 1014.7 |
| 20260506050518 | 57 | 180 | 2.0 | 10.0 | 0.00 | 0.00 | 0.00 | 80 | 1014.3 |
| 20260506044536 | 57 | 180 | 2.0 | 5.0 | 0.00 | 0.00 | 0.00 | 80 | 1014.0 |
| 20260506043525 | 58 | 225 | 4.0 | 9.0 | 0.00 | 0.00 | 0.00 | 79 | 1014.0 |
| 20260506042519 | 58 | 45 | 0.0 | 2.0 | 0.00 | 0.00 | 0.00 | 77 | 1013.8 |
| 20260506041518 | 58 | 23 | 3.0 | 6.0 | 0.00 | 0.00 | 0.00 | 77 | 1013.5 |
| 20260506040519 | 59 | 23 | 2.0 | 4.0 | 0.00 | 0.00 | 0.00 | 75 | 1013.5 |
| 20260506035539 | 60 | 68 | 2.0 | 5.0 | 0.00 | 0.00 | 0.00 | 74 | 1013.4 |
| 20260506034519 | 60 | 90 | 2.0 | 6.0 | 0.00 | 0.00 | 0.00 | 73 | 1013.2 |
| 20260506033519 | 61 | 45 | 2.0 | 3.0 | 0.00 | 0.00 | 0.00 | 72 | 1013.1 |
| 20260506032539 | 62 | 68 | 2.0 | 5.0 | 0.00 | 0.00 | 0.00 | 71 | 1012.9 |
| 20260506031519 | 63 | 90 | 2.0 | 5.0 | 0.00 | 0.00 | 0.00 | 70 | 1012.9 |
| 20260506030518 | 63 | 113 | 2.0 | 5.0 | 0.00 | 0.00 | 0.00 | 69 | 1012.8 |
| 20260506025519 | 64 | 113 | 1.0 | 5.0 | 0.00 | 0.00 | 0.00 | 67 | 1012.5 |
| 20260506024631 | 65 | 90 | 3.0 | 7.0 | 0.00 | 0.00 | 0.00 | 66 | 1012.4 |
| 20260506023518 | 65 | 225 | 4.0 | 6.0 | 0.00 | 0.00 | 0.00 | 67 | 1012.4 |
| 20260506022519 | 66 | 315 | 2.0 | 5.0 | 0.00 | 0.00 | 0.00 | 65 | 1012.3 |
| 20260506021518 | 66 | 203 | 2.0 | 7.0 | 0.00 | 0.00 | 0.00 | 66 | 1012.1 |
| 20260506020519 | 66 | 225 | 2.0 | 5.0 | 0.00 | 0.00 | 0.00 | 64 | 1012.1 |
| 20260506015519 | 67 | 225 | 6.0 | 13.0 | 0.00 | 0.00 | 0.00 | 64 | 1012.1 |
| 20260506014518 | 67 | 225 | 4.0 | 7.0 | 0.00 | 0.00 | 0.00 | 64 | 1012.0 |
| 20260506013519 | 67 | 180 | 6.0 | 10.0 | 0.00 | 0.00 | 0.00 | 64 | 1012.0 |
| 20260506012518 | 67 | 180 | 8.0 | 16.0 | 0.00 | 0.00 | 0.00 | 62 | 1012.1 |
| 20260506011519 | 68 | 180 | 8.0 | 13.0 | 0.00 | 0.00 | 0.00 | 63 | 1012.1 |
| 20260506010518 | 68 | 180 | 9.0 | 14.0 | 0.00 | 0.00 | 0.00 | 62 | 1012.1 |
| 20260506005518 | 68 | 180 | 7.0 | 12.0 | 0.00 | 0.00 | 0.00 | 62 | 1012.1 |
| 20260506004518 | 68 | 180 | 7.0 | 13.0 | 0.00 | 0.00 | 0.00 | 62 | 1012.3 |
| 20260506003518 | 68 | 180 | 10.0 | 20.0 | 0.00 | 0.00 | 0.00 | 61 | 1012.3 |
| 20260506002519 | 69 | 180 | 8.0 | 13.0 | 0.00 | 0.00 | 0.00 | 60 | 1012.3 |
| 20260506001519 | 70 | 180 | 8.0 | 15.0 | 0.00 | 0.00 | 0.00 | 59 | 1012.3 |
| 20260506000518 | 70 | 180 | 6.0 | 11.0 | 0.00 | 0.00 | 0.00 | 59 | 1012.3 |
| 20260505235544 | 70 | 180 | 7.0 | 15.0 | 0.00 | 0.00 | 0.00 | 59 | 1012.4 |
| 20260505234519 | 70 | 225 | 7.0 | 12.0 | 0.00 | 0.00 | 0.00 | 58 | 1012.4 |
| 20260505233546 | 71 | 180 | 7.0 | 12.0 | 0.00 | 0.00 | 0.00 | 58 | 1012.4 |
| 20260505232538 | 71 | 203 | 8.0 | 16.0 | 0.00 | 0.00 | 0.00 | 58 | 1012.4 |
| 20260505231606 | 71 | 180 | 10.0 | 17.0 | 0.00 | 0.00 | 0.00 | 58 | 1012.4 |
| 20260505230544 | 72 | 180 | 9.0 | 14.0 | 0.00 | 0.00 | 0.00 | 56 | 1012.4 |
| 20260505225519 | 72 | 180 | 9.0 | 16.0 | 0.00 | 0.00 | 0.00 | 56 | 1012.6 |
| 20260505224518 | 73 | 180 | 8.0 | 14.0 | 0.00 | 0.00 | 0.00 | 55 | 1012.7 |
| 20260505223519 | 74 | 180 | 9.0 | 16.0 | 0.00 | 0.00 | 0.00 | 55 | 1012.7 |
| 20260505222519 | 74 | 180 | 7.0 | 13.0 | 0.00 | 0.00 | 0.00 | 53 | 1012.9 |
| 20260505221518 | 75 | 180 | 10.0 | 16.0 | 0.00 | 0.00 | 0.00 | 53 | 1012.9 |
| 20260505220518 | 75 | 180 | 6.0 | 10.0 | 0.00 | 0.00 | 0.00 | 55 | 1012.9 |
| 20260505215541 | 75 | 180 | 7.0 | 11.0 | 0.00 | 0.00 | 0.00 | 54 | 1013.0 |
| 20260505214519 | 75 | 180 | 8.0 | 12.0 | 0.00 | 0.00 | 0.00 | 53 | 1013.1 |
| 20260505213518 | 75 | 180 | 7.0 | 13.0 | 0.00 | 0.00 | 0.00 | 53 | 1013.1 |
| 20260505212518 | 75 | 180 | 7.0 | 10.0 | 0.00 | 0.00 | 0.00 | 53 | 1013.1 |
| 20260505211611 | 75 | 180 | 7.0 | 10.0 | 0.00 | 0.00 | 0.00 | 55 | 1013.3 |
| 20260505210520 | 74 | 180 | 7.0 | 10.0 | 0.00 | 0.00 | 0.00 | 54 | 1013.3 |
| 20260505205540 | 74 | 180 | 8.0 | 12.0 | 0.00 | 0.00 | 0.00 | 56 | 1013.4 |
| 20260505204520 | 73 | 180 | 8.0 | 13.0 | 0.00 | 0.00 | 0.00 | 57 | 1013.5 |
| 20260505203519 | 73 | 180 | 8.0 | 13.0 | 0.00 | 0.00 | 0.00 | 57 | 1013.5 |
| 20260505202540 | 72 | 180 | 8.0 | 12.0 | 0.00 | 0.00 | 0.00 | 59 | 1013.5 |
| 20260505201540 | 72 | 180 | 8.0 | 15.0 | 0.00 | 0.00 | 0.00 | 59 | 1013.6 |
| 20260505200520 | 71 | 180 | 9.0 | 14.0 | 0.00 | 0.00 | 0.00 | 59 | 1013.6 |
| 20260505195540 | 71 | 225 | 6.0 | 11.0 | 0.00 | 0.00 | 0.00 | 61 | 1013.7 |
| 20260505194519 | 70 | 225 | 6.0 | 9.0 | 0.00 | 0.00 | 0.00 | 61 | 1013.9 |
| 20260505193520 | 70 | 180 | 6.0 | 12.0 | 0.00 | 0.00 | 0.00 | 62 | 1014.0 |
| 20260505192519 | 69 | 180 | 4.0 | 8.0 | 0.00 | 0.00 | 0.00 | 63 | 1014.0 |
| 20260505191517 | 69 | 225 | 3.0 | 6.0 | 0.00 | 0.00 | 0.00 | 64 | 1014.0 |
| 20260505190520 | 68 | 225 | 5.0 | 8.0 | 0.00 | 0.00 | 0.00 | 64 | 1014.0 |
| 20260505185520 | 67 | 248 | 3.0 | 7.0 | 0.00 | 0.00 | 0.00 | 67 | 1014.2 |
| 20260505184521 | 67 | 225 | 3.0 | 5.0 | 0.00 | 0.00 | 0.00 | 67 | 1014.3 |
| 20260505183519 | 66 | 225 | 3.0 | 5.0 | 0.00 | 0.00 | 0.00 | 69 | 1014.3 |
| 20260505182519 | 66 | 225 | 4.0 | 7.0 | 0.00 | 0.00 | 0.00 | 71 | 1014.3 |
| 20260505181520 | 64 | 68 | 1.0 | 5.0 | 0.00 | 0.00 | 0.00 | 75 | 1014.3 |
| 20260505180522 | 62 | 23 | 2.0 | 4.0 | 0.00 | 0.00 | 0.00 | 76 | 1014.3 |
| 20260505175520 | 62 | 113 | 2.0 | 4.0 | 0.00 | 0.00 | 0.00 | 79 | 1014.4 |
| 20260505174519 | 61 | 23 | 3.0 | 6.0 | 0.00 | 0.00 | 0.00 | 79 | 1014.5 |
| 20260505173519 | 59 | 68 | 1.0 | 4.0 | 0.00 | 0.00 | 0.00 | 82 | 1014.5 |
| 20260505172519 | 58 | 135 | 1.0 | 3.0 | 0.00 | 0.00 | 0.00 | 83 | 1014.5 |
| 20260505171523 | 57 | 90 | 2.0 | 5.0 | 0.00 | 0.00 | 0.00 | 84 | 1014.5 |
| 20260505170555 | 57 | 45 | 2.0 | 5.0 | 0.00 | 0.00 | 0.00 | 84 | 1014.5 |
| 20260505165519 | 57 | 225 | 1.0 | 2.0 | 0.00 | 0.00 | 0.00 | 85 | 1014.5 |
| 20260505164641 | 57 | 225 | 4.0 | 6.0 | 0.00 | 0.00 | 0.00 | 86 | 1014.5 |
| 20260505163520 | 57 | 180 | 3.0 | 6.0 | 0.00 | 0.00 | 0.00 | 86 | 1014.5 |
| 20260505162519 | 56 | 180 | 1.0 | 3.0 | 0.00 | 0.00 | 0.00 | 87 | 1014.4 |
| 20260505161519 | 56 | 180 | 3.0 | 5.0 | 0.00 | 0.00 | 0.00 | 86 | 1014.4 |
| 20260505160520 | 56 | 203 | 3.0 | 5.0 | 0.00 | 0.00 | 0.00 | 87 | 1014.3 |
| 20260505152540 | 56 | 180 | 2.0 | 4.0 | 0.00 | 0.00 | 0.00 | 88 | 1014.0 |
| 20260505151520 | 55 | 293 | 1.0 | 1.0 | 0.00 | 0.00 | 0.00 | 88 | 1014.0 |
| 20260505150519 | 55 | 225 | 1.0 | 3.0 | 0.00 | 0.00 | 0.00 | 89 | 1014.0 |
| 20260505140519 | 54 | 90 | 1.0 | 3.0 | 0.00 | 0.00 | 0.00 | 90 | 1013.4 |
| 20260505124519 | 53 | 68 | 2.0 | 5.0 | 0.00 | 0.00 | 0.00 | 92 | 1012.6 |
| 20260505123519 | 52 | 68 | 2.0 | 3.0 | 0.00 | 0.00 | 0.00 | 92 | 1012.6 |
| 20260505122519 | 52 | 113 | 1.0 | 2.0 | 0.00 | 0.00 | 0.00 | 92 | 1012.5 |
| 20260505121519 | 52 | 45 | 1.0 | 2.0 | 0.00 | 0.00 | 0.00 | 92 | 1012.5 |
| 20260505120521 | 52 | 68 | 2.0 | 3.0 | 0.00 | 0.00 | 0.00 | 92 | 1012.5 |
| 20260505115519 | 52 | 68 | 2.0 | 3.0 | 0.00 | 0.00 | 0.00 | 92 | 1012.4 |
| 20260505114539 | 52 | 68 | 2.0 | 5.0 | 0.00 | 0.00 | 0.00 | 91 | 1012.4 |
| 20260505113519 | 52 | 68 | 2.0 | 5.0 | 0.00 | 0.00 | 0.00 | 91 | 1012.4 |
| 20260505112539 | 52 | 90 | 1.0 | 3.0 | 0.00 | 0.00 | 0.00 | 91 | 1012.3 |
| 20260505111519 | 53 | 90 | 3.0 | 5.0 | 0.00 | 0.00 | 0.00 | 91 | 1012.2 |
| 20260505110519 | 53 | 135 | 2.0 | 4.0 | 0.00 | 0.00 | 0.00 | 91 | 1012.1 |
| 20260505101518 | 53 | 68 | 2.0 | 4.0 | 0.00 | 0.00 | 0.00 | 90 | 1011.9 |
| 20260505100518 | 53 | 113 | 2.0 | 5.0 | 0.00 | 0.00 | 0.00 | 90 | 1011.9 |
| 20260505095519 | 53 | 90 | 2.0 | 4.0 | 0.00 | 0.00 | 0.00 | 90 | 1011.7 |
| 20260505094518 | 53 | 113 | 3.0 | 6.0 | 0.00 | 0.00 | 0.00 | 90 | 1011.5 |
| 20260505093519 | 53 | 90 | 3.0 | 6.0 | 0.00 | 0.00 | 0.00 | 90 | 1011.4 |
| 20260505092519 | 53 | 113 | 3.0 | 5.0 | 0.00 | 0.00 | 0.00 | 89 | 1011.4 |
| 20260505091518 | 54 | 113 | 2.0 | 5.0 | 0.00 | 0.00 | 0.00 | 89 | 1011.4 |
| 20260505090518 | 54 | 135 | 2.0 | 3.0 | 0.00 | 0.00 | 0.00 | 89 | 1011.4 |
| 20260505085518 | 54 | 90 | 2.0 | 3.0 | 0.00 | 0.00 | 0.00 | 89 | 1011.4 |
| 20260505084519 | 54 | 135 | 3.0 | 5.0 | 0.00 | 0.00 | 0.00 | 88 | 1011.4 |
| 20260505083518 | 54 | 90 | 3.0 | 5.0 | 0.00 | 0.00 | 0.00 | 88 | 1011.3 |
| 20260505082543 | 54 | 68 | 3.0 | 5.0 | 0.00 | 0.00 | 0.00 | 88 | 1011.2 |
| 20260505081519 | 54 | 90 | 4.0 | 7.0 | 0.00 | 0.00 | 0.00 | 87 | 1011.2 |
| 20260505080518 | 55 | 113 | 4.0 | 7.0 | 0.00 | 0.00 | 0.00 | 87 | 1011.1 |